This demonstration page uses our WeatherBlox Daily Observations layout. Learn more.

Left ArrowRight Arrow

31.84235, -102.49876

Hourly Observations for May 25, 2022

Temp ( °F °C ) Dew Point ( °F °C ) Humidity (%) Winds ( mph kmh ) Pressure ( in mb ) Visibility ( mi km ) Precip ( " mm )
12:53 am 00:53 Clear 54 12.2 47 8.3 77 77 N 14 22 29.84 1011 10 16 0.00 0.00
1:53 am 01:53 Clear 52 11.1 43 6.1 72 72 N 13 20 29.87 1011 10 16 0.00 0.00
2:53 am 02:53 Clear 50 10 43 6.1 77 77 N 14 22 29.86 1011 10 16 0.00 0.00
3:53 am 03:53 Clear 50 10 43 6.1 77 77 N 13 20 29.88 1012 10 16 0.00 0.00
4:53 am 04:53 Clear 49 9.4 42 5.6 77 77 N 9 15 29.88 1012 10 16 0.00 0.00
5:53 am 05:53 Clear 48 8.9 42 5.6 80 80 W 3 6 29.92 1013 10 16 0.00 0.00
6:53 am 06:53 Sunny 46 7.8 42 5.6 86 86 WNW 7 11 29.97 1015 10 16 0.00 0.00
7:53 am 07:53 Sunny 48 8.9 42 5.6 80 80 NW 8 13 29.98 1015 10 16 0.00 0.00
8:53 am 08:53 Sunny 52 11.1 43 6.1 72 72 NNW 10 17 29.98 1015 10 16 0.00 0.00
9:53 am 09:53 Sunny 58 14.4 43 6.1 58 58 NNW 9 15 29.98 1015 10 16 0.00 0.00
10:53 am 10:53 Sunny 61 16.1 42 5.6 50 50 NW 7 11 29.98 1015 10 16 0.00 0.00
11:53 am 11:53 Sunny 65 18.3 41 5 42 42 N 12 19 29.98 1015 10 16 0.00 0.00
12:53 pm 12:53 Sunny 67 19.4 41 5 39 39 VRB 6 9 29.97 1015 10 16 0.00 0.00
1:53 pm 13:53 Sunny 70 21.1 40 4.4 34 34 NNW 10 17 29.95 1014 10 16 0.00 0.00
2:53 pm 14:53 Sunny 72 22.2 39 3.9 30 30 VRB 3 6 29.93 1014 10 16 0.00 0.00
3:53 pm 15:53 Sunny 73 22.8 40 4.4 30 30 W 6 9 29.91 1013 10 16 0.00 0.00
4:53 pm 16:53 Sunny 74 23.3 39 3.9 28 28 NE 5 7 29.89 1012 10 16 0.00 0.00
5:53 pm 17:53 Sunny 76 24.4 38 3.3 25 25 VRB 5 7 29.88 1012 10 16 0.00 0.00
6:53 pm 18:53 Sunny 77 25 37 2.8 24 24 WNW 9 15 29.87 1012 10 16 0.00 0.00
7:53 pm 19:53 Sunny 76 24.4 37 2.8 24 24 Calm 29.87 1012 10 16 0.00 0.00
8:53 pm 20:53 Clear 72 22.2 37 2.8 28 28 E 5 7 29.88 1012 10 16 0.00 0.00
9:53 pm 21:53 Clear 69 20.6 38 3.3 32 32 E 7 11 29.88 1012 10 16 0.00 0.00
10:53 pm 22:53 Clear 66 18.9 38 3.3 36 36 S 3 6 29.90 1012 10 16 0.00 0.00
11:53 pm 23:53 Clear 66 18.9 38 3.3 36 36 SE 5 7 29.91 1013 10 16 0.00 0.00

Powered by AerisWeather